Regional Weather Roundup
Issued by NWS Columbia, SC

Home | Current Version | Previous Version | Text Only | Print | Product List | Glossary On
Versions: 1 2 3 4 5 6 7 8 9 10 11 12 13 14 15 16 17 18 19 20 21 22 23 24 25 26 27 28 29 30 31 32 33 34 35 36 37 38 39 40 41 42 43 44 45 46 47 48 49 50
000
ASUS42 KCAE 190710
RWRCAE
REGIONAL WEATHER ROUNDUP
NATIONAL WEATHER SERVICE COLUMBIA SC
300 AM EDT THU OCT 19 2017

NOTE: "FAIR" INDICATES FEW OR NO CLOUDS BELOW 12,000 FEET WITH NO
SIGNIFICANT WEATHER AND/OR OBSTRUCTIONS TO VISIBILITY.

NOT ALL STATIONS ARE QUALITY CONTROLLED BY THE NATIONAL
WEATHER SERVICE. USE DATA WITH CAUTION...ESPECIALLY
DEWPOINT OBSERVATIONS.

SCZ001>056-GAZ040-063>065-077-190800-
...UPSTATE SOUTH CAROLINA...

CITY           SKY/WX    TMP DP  RH WIND       PRES   REMARKS
ANDERSON       CLEAR     47  43  86 NE3       30.29F
LIBERTY        SUNNY     40  40 100 CALM      30.29F
SPARTANBURG    CLEAR     45  43  93 CALM      30.30S
CLEMSON        CLEAR     50  50 100 N5        30.30F
GREENVILLE     CLEAR     48  43  82 CALM      30.30F
GREENWOOD      CLEAR     41  41 100 CALM      30.30F
GREER          CLEAR     47  44  90 CALM      30.30F
ROCK HILL      CLEAR     41  41 100 CALM      30.30F
CHESTER        SUNNY     43  37  81 N3        30.30F
LAURENS        SUNNY     41  41 100 N5        30.29F


...CENTRAL SOUTH CAROLINA...

CITY           SKY/WX    TMP DP  RH WIND       PRES   REMARKS
COLUMBIA APT   CLEAR     45  44  97 CALM      30.28S
MCENTIRE ANGB  CLEAR     47  42  83 CALM      30.27S
ORANGEBURG     CLEAR     48  45  89 CALM      30.27S
SUMTER SHAW    CLEAR     50  42  72 NE6       30.25S
NEWBERRY       SUNNY     45  41  87 N3        30.31F
AIKEN          FAIR      45  39  81 CALM      30.31R
BARNWELL         N/A     50  45  81 CALM      30.26S
MANNING        FOG       48  48 100 MISG      30.26S VSB<1/4
CAMDEN         CLOUDY    48  41  76 CALM      30.29S
LANCASTER      SUNNY     41  41 100 CALM      30.30S
WINNSBORO      SUNNY     50  39  66 NE5       30.28F


...EASTERN AND COASTAL SOUTH CAROLINA...

CITY           SKY/WX    TMP DP  RH WIND       PRES   REMARKS
MYRTLE BEACH   CLEAR     58  51  78 N7        30.25F
N MYRTLE BCH   CLEAR     56  52  86 N7        30.24F
MARION         FAIR     N/A N/A N/A N5        30.26F
HARTSVILLE     FAIR      46  43  87 N3        30.28S
FLORENCE       CLEAR     51  46  83 N7        30.27F
DARLINGTON     CLEAR     46  44  93 N5        30.29S
CHARLESTON APT CLEAR     57  54  89 N6        30.23F
MOUNT PLEASANT FAIR      59  54  82 CALM      30.23F
WALTERBORO     SUNNY     52  50  93 CALM      30.25S
BEAUFORT       CLEAR     60  56  86 MISG      30.22F


...EASTERN GEORGIA...

CITY           SKY/WX    TMP DP  RH WIND       PRES   REMARKS
AUGUSTA BUSH F CLEAR     47  44  90 CALM      30.27S
AUGUSTA DANIEL CLEAR     54  42  64 N3        30.28S
THOMSON        CLEAR     41  39  95 CALM      30.32F
WASHINGTON     FAIR      45  43  93 CALM      30.28S
CLAXTON        FAIR      53  53  99 CALM      30.23F
SYLVANIA       SUNNY     55  49  82 NE3       30.25F
STATESBORO     CLEAR     53  48  83 CALM      30.24S
SAVANNAH       CLEAR     60  56  86 NE6       30.22F


...SOUTHERN NORTH CAROLINA...

CITY           SKY/WX    TMP DP  RH WIND       PRES   REMARKS
CHARLOTTE      PTCLDY    44  44 100 NW5       30.31S
MONROE         CLEAR     44  40  85 CALM      30.30R
WADESBORO      SUNNY     39  37  92 CALM      30.30F
RUTHERFORDTON  CLEAR     42  42 100 CALM      30.31F
ASHEVILLE      CLEAR     42  40  92 CALM      30.33F

$$



USA.gov is the U.S. government's official web portal to all federal, state and local government web resources and services.